RH
75 60 47 37 32 35 37 27 22 21 62 66 68 74 92 97 82 77 86 89 85 88 89 89 89 90 90 88 85 83 80 74 71 70 73 70 70 69 73 72 71 68 61 57 57 58 59 64 72
51 38 37 34 28 30 24 22 22 54 62 66 57 69 88 92 82 94 90 88 81 86 87 87 89 89 89 87 84 81 75 72 71 68 69 69 70 69 73 74 72 69 63 57 58 60 63 67 74
44 38 50 38 31 26 24 24 68 66 62 59 55 58 77 93 84 86 87 84 84 88 84 86 90 90 88 85 82 80 79 78 75 73 68 67 69 66 71 75 72 68 60 59 60 62 66 75 78
40 34 26 24 24 19 19 29 58 62 58 57 59 66 81 87 86 85 90 87 88 91 86 92 92 90 86 85 84 83 81 79 76 76 74 70 68 66 72 76 72 66 62 61 61 64 73 80 77
36 27 26 25 21 24 63 65 68 68 71 69 66 88 92 91 86 86 90 89 93 94 92 92 92 89 86 84 83 83 82 80 78 78 77 75 74 72 78 77 75 72 66 64 64 70 75 78 77
40 26 27 25 20 31 64 73 63 71 70 62 72 90 93 92 93 95 95 96 96 96 92 89 88 86 84 84 85 85 83 80 81 80 79 78 79 80 80 80 79 78 76 75 73 72 73 76 78
40 38 37 26 26 24 63 67 60 65 68 64 62 93 95 95 96 94 94 93 96 97 98 98 92 87 89 89 88 86 83 82 84 83 82 82 83 82 80 79 78 77 74 73 72 73 74 79 79
38 31 33 26 22 54 59 57 59 59 69 62 67 96 98 96 95 94 92 94 95 97 97 97 97 93 93 82 87 85 83 84 85 85 85 84 83 82 80 79 77 73 69 71 73 75 77 75 80
24 32 30 25 48 53 61 67 61 56 62 88 90 93 94 95 91 94 95 94 96 96 97 96 95 98 95 89 84 83 82 83 84 82 81 85 85 83 77 79 74 71 72 73 76 74 76 70 76
29 32 27 21 56 58 58 60 54 58 73 92 96 94 92 90 91 95 94 96 95 96 95 94 93 95 92 72 88 84 74 80 80 80 79 77 81 82 77 80 75 77 79 75 75 70 68 62 62
29 28 22 47 56 57 52 56 50 66 77 86 93 92 92 90 89 92 93 93 93 92 90 94 96 97 91 79 90 88 83 81 78 76 76 80 82 89 84 85 86 72 69 61 59 56 55 54 57
28 20 34 41 50 55 58 50 44 64 74 82 79 85 87 86 88 88 91 93 92 90 81 86 97 96 93 85 86 85 85 90 94 84 85 90 89 85 83 82 79 70 70 68 67 67 59 57 54
22 19 24 43 50 52 48 48 53 74 88 80 77 81 86 87 85 76 76 81 86 85 79 83 93 96 90 84 84 90 97 93 94 92 90 92 89 89 84 77 75 70 68 67 66 62 60 58 55
22 36 48 48 47 40 46 52 51 66 91 85 83 77 68 80 82 78 84 90 91 82 83 86 94 95 87 89 94 97 92 93 95 96 94 89 89 82 76 75 72 75 70 68 68 67 67 64 56
30 48 48 48 46 42 47 52 60 56 78 92 83 82 74 81 80 76 77 84 85 86 82 92 96 87 90 92 92 92 96 96 97 97 91 86 83 80 78 75 75 76 72 69 69 70 69 66 54
24 34 37 40 44 44 38 48 54 64 70 83 88 88 84 84 79 74 71 78 81 82 86 92 80 88 94 92 94 96 93 94 95 97 94 85 76 78 74 74 78 76 73 72 73 71 70 70 64
30 30 35 40 42 41 40 49 50 60 65 75 76 85 88 88 81 72 67 78 84 84 86 86 90 91 93 90 94 94 89 86 87 87 82 76 76 72 74 77 78 74 72 74 66 71 70 70 68
39 31 31 35 38 49 47 41 57 61 70 73 71 68 79 87 80 70 72 77 84 90 90 90 90 94 92 95 97 97 93 90 89 80 73 68 76 73 76 76 77 74 71 70 67 63 68 76 77
33 36 35 28 22 42 45 38 57 62 67 71 71 68 66 78 69 70 72 80 88 91 91 92 94 94 89 94 96 98 96 95 88 78 68 72 72 70 73 75 74 73 72 73 70 73 69 77 76
33 37 35 28 23 26 36 47 68 64 61 62 61 68 55 67 64 71 78 84 85 84 89 93 90 93 84 82 96 94 91 88 76 74 72 71 70 68 70 76 75 72 72 70 74 74 78 82 80
38 39 35 33 22 29 35 42 66 58 56 54 50 57 53 55 58 62 75 82 82 84 89 91 90 90 84 88 94 90 80 75 74 75 75 72 70 64 62 62 64 65 66 69 75 80 75 78 82
41 32 30 32 28 30 28 36 41 62 58 54 51 58 60 51 50 54 68 79 80 84 90 90 90 91 88 88 88 82 85 69 76 76 78 56 58 58 55 59 67 72 75 73 79 80 87 83 83
33 31 33 38 37 42 44 41 39 57 60 53 45 49 60 57 48 54 60 72 77 89 94 95 94 94 90 92 94 92 88 81 81 77 58 57 62 57 56 62 67 72 78 82 83 86 87 89 89
29 37 41 51 49 60 54 46 44 51 42 42 41 41 51 57 64 78 86 83 85 93 97 98 95 95 96 88 93 89 78 79 69 60 59 65 64 64 60 57 63 64 71 82 83 87 86 89 90
34 40 48 48 68 62 52 55 44 31 34 36 38 38 48 57 70 94 98 96 96 97 98 97 97 93 91 82 88 80 72 67 58 52 58 62 62 61 60 55 59 62 74 82 83 83 88 90 91
47 40 58 48 72 53 60 64 46 36 33 35 34 40 50 65 65 89 92 95 95 95 97 95 90 84 80 78 74 62 58 60 50 49 58 59 56 58 55 57 57 59 62 79 86 88 93 91 92
43 46 43 75 86 82 60 51 30 37 43 56 57 69 73 83 82 86 93 94 97 97 94 85 72 64 65 65 55 54 53 49 52 54 52 55 58 53 58 56 58 61 60 66 73 91 91 91 91
40 38 52 68 68 70 58 49 44 40 39 56 61 66 80 89 91 92 91 91 90 85 80 71 59 54 55 52 51 47 47 49 52 54 52 52 55 55 58 58 58 60 62 67 73 90 88 83 84
43 42 45 49 66 64 74 54 35 35 38 36 44 57 77 88 88 85 82 81 78 75 74 66 57 50 50 49 53 58 57 58 53 49 52 53 54 56 56 57 59 58 63 65 71 71 68 74 80
45 45 44 68 48 84 83 57 32 30 34 39 36 50 63 79 79 78 78 75 68 69 69 65 56 50 46 56 63 55 53 56 56 55 54 58 54 60 61 62 60 59 62 64 64 66 64 71 78
Wind_Speed
4 2 2 5 5 6 4 7 4 8 3 6 2 6 9 3 3 3 5 3 15 16 14 16 21 22 21 21 19 20 20 20 21 20 20 19 20 18 18 18 18 18 19 20 20 20 20 21 21
3 2 5 3 6 3 6 5 6 4 5 4 5 4 7 5 3 5 5 10 15 14 13 14 21 22 21 22 20 20 20 20 19 19 19 18 20 19 18 17 17 17 17 19 20 21 21 21 19
2 3 4 5 3 4 4 3 0 2 3 2 3 6 3 4 3 3 8 13 12 12 12 14 20 21 20 22 20 19 18 18 17 16 19 19 19 19 18 16 16 16 17 17 18 19 20 17 16
3 4 4 4 4 7 5 6 5 2 4 7 2 6 4 7 4 6 10 9 9 7 11 17 20 21 22 21 20 19 18 16 16 16 16 17 19 19 17 16 16 17 15 15 14 14 16 14 14
4 3 3 1 5 4 1 4 2 4 4 4 1 2 5 5 12 11 9 6 6 7 9 13 20 21 21 22 20 19 17 15 16 16 15 15 16 16 14 15 14 13 14 12 11 11 11 14 13
4 3 4 1 4 5 1 1 1 1 1 2 7 4 4 3 13 12 12 9 7 3 5 9 21 23 20 21 20 18 16 14 15 15 15 15 14 14 13 13 11 10 9 9 9 9 11 11 12
6 4 4 3 4 5 3 1 2 4 0 4 4 5 3 11 13 16 16 17 19 11 7 7 7 13 14 14 16 15 14 13 13 13 14 13 12 12 12 11 10 9 9 9 10 10 11 11 12
5 4 2 2 4 6 3 2 3 3 4 3 5 5 6 6 13 14 15 18 18 12 15 15 12 7 5 6 13 11 12 11 11 11 11 10 11 9 9 8 8 7 9 10 10 9 9 11 11
3 4 1 4 3 6 1 4 3 3 7 5 5 3 12 15 15 14 14 14 15 15 9 10 6 5 6 5 5 7 9 10 11 10 11 7 4 4 6 6 7 9 9 8 8 12 11 10 12
4 4 6 5 3 3 4 3 4 4 5 6 10 14 13 15 13 15 15 11 14 14 10 12 12 8 3 2 4 3 5 4 4 5 5 4 4 4 5 4 9 9 10 12 14 12 12 9 5
4 5 6 6 6 3 4 5 3 9 2 6 17 14 11 9 7 10 11 9 8 13 9 8 5 2 1 3 2 2 2 3 3 6 5 4 3 2 3 3 3 4 8 5 6 6 6 7 5
2 8 7 5 4 3 1 4 5 2 2 19 16 11 6 6 8 7 13 12 11 12 13 10 3 5 3 3 3 3 3 3 3 4 4 4 3 4 4 3 4 5 3 6 5 4 5 7 7
5 5 6 6 7 2 3 3 5 6 16 20 20 17 13 13 8 6 11 11 11 12 13 10 6 5 5 5 4 4 4 3 4 4 4 4 4 4 4 4 4 5 4 4 5 5 5 5 5
4 3 1 1 3 4 6 1 5 2 17 19 19 16 16 17 12 7 10 11 12 12 12 8 6 5 5 4 5 4 4 4 4 4 4 5 4 4 5 4 4 5 4 4 4 4 5 5 5
3 4 3 2 2 4 10 3 6 15 13 20 20 14 11 11 10 12 14 12 14 12 12 9 7 7 6 6 5 5 4 4 4 4 5 6 5 5 6 5 5 4 4 6 5 5 5 5 3
2 4 3 1 6 1 4 4 3 10 12 14 16 14 12 14 16 12 10 11 10 10 9 8 9 8 8 7 5 4 4 4 4 4 4 6 6 7 6 5 4 4 5 4 4 3 4 4 5
6 2 1 4 7 2 2 3 6 9 10 10 10 15 13 10 10 11 11 12 12 10 9 8 8 9 9 6 5 5 5 4 4 4 4 6 6 6 6 5 4 5 5 5 3 3 2 3 3
2 3 3 2 2 3 4 4 6 10 8 9 8 8 12 13 18 16 14 11 9 9 8 8 7 9 9 5 5 3 4 3 3 3 4 6 5 6 6 5 5 4 5 4 3 3 4 3 2
3 2 6 4 6 8 11 7 10 9 7 5 6 8 10 16 16 14 14 11 8 7 9 10 10 9 10 6 5 3 4 3 2 2 6 6 6 6 6 4 5 5 5 4 2 2 5 4 3
8 5 9 9 3 10 8 5 1 5 9 9 12 10 15 14 13 14 12 11 11 13 10 10 11 11 10 8 4 4 4 2 2 3 5 5 6 6 5 5 5 5 4 5 5 5 2 2 3
4 4 6 5 2 5 6 5 3 3 2 1 6 6 9 17 17 15 15 14 11 13 14 14 13 14 10 7 5 4 4 4 3 2 3 3 5 6 6 6 5 5 5 5 4 3 3 1 2
5 3 7 4 3 2 4 3 4 7 10 6 8 8 9 15 14 13 15 14 16 13 9 10 12 14 10 8 7 10 7 7 3 3 3 4 6 7 7 6 6 6 4 5 2 2 1 2 1
9 5 1 1 3 6 5 4 8 5 7 15 16 12 10 9 12 16 18 17 13 11 12 10 10 10 8 8 6 6 5 3 4 4 7 6 5 6 6 6 6 6 4 3 4 4 4 2 2
4 2 7 4 3 3 2 5 6 6 18 19 21 13 13 11 8 7 5 9 11 9 8 7 11 10 7 9 6 7 8 8 7 5 5 4 4 4 6 6 6 5 4 3 1 2 3 2 2
7 5 4 5 5 5 2 1 10 9 11 10 13 16 16 11 11 10 13 12 11 13 12 10 10 7 7 9 8 8 9 10 12 9 7 8 4 3 5 5 4 4 2 4 3 3 2 3 2
2 5 6 3 3 3 3 5 9 4 7 8 10 9 7 9 13 15 17 14 13 13 11 11 10 7 7 8 7 7 9 7 7 7 6 5 5 5 4 6 5 4 2 2 3 2 3 3 3
2 1 3 7 4 3 4 7 11 6 2 5 5 5 7 9 12 15 14 14 12 12 11 11 10 7 9 11 9 9 9 11 9 9 8 6 7 6 6 6 5 5 4 4 4 4 4 4 3
2 6 2 3 3 3 4 5 7 7 3 5 5 8 7 6 7 9 12 12 10 10 8 8 9 12 13 13 13 12 11 10 10 10 11 11 10 9 8 7 6 6 4 5 5 4 4 3 3
1 2 2 5 6 5 1 7 7 6 5 6 4 8 8 8 9 11 12 11 11 11 11 12 11 12 11 12 10 10 9 9 10 10 9 9 7 8 7 7 6 5 5 4 3 4 4 4 4
2 2 6 6 5 1 4 8 5 8 6 5 9 6 8 8 11 12 12 12 12 13 14 16 14 14 13 9 9 10 10 10 10 9 10 10 10 7 8 7 6 6 5 5 6 6 5 6 5
Wind_Direction
85 66 25 41 59 63 250 260 224 288 30 326 339 82 104 41 74 209 113 128 135 143 143 134 133 128 124 119 118 117 115 116 116 115 112 115 113 113 110 106 103 98 92 87 83 77 65 55 51
129 102 40 70 83 67 269 261 281 342 3 349 13 27 58 74 65 110 94 152 146 141 138 140 139 134 129 122 125 120 122 121 120 120 119 120 118 118 114 111 106 100 94 85 80 75 67 60 54
149 53 79 84 122 196 238 266 209 154 44 76 91 44 45 40 103 99 112 144 135 141 143 143 133 130 131 123 122 122 124 124 126 125 123 123 121 123 117 109 105 100 91 82 77 78 73 64 61
117 20 36 85 234 251 233 308 258 293 90 27 26 59 73 349 313 115 119 124 136 128 150 143 138 134 132 126 125 128 127 127 131 129 127 129 125 124 117 110 105 97 90 79 72 69 80 73 58
39 62 69 6 271 258 314 292 341 10 85 30 337 55 57 60 77 88 105 98 111 140 171 144 137 134 132 129 130 131 130 137 134 132 130 127 122 119 109 105 104 106 99 88 70 59 61 79 72
52 94 56 228 258 277 158 349 272 129 323 143 84 83 56 88 76 60 54 46 10 64 153 154 142 138 135 133 136 129 133 136 136 133 127 122 122 118 114 117 117 109 99 86 67 51 50 63 82
113 94 200 244 255 296 235 241 130 141 87 18 85 87 68 57 84 80 78 74 66 32 67 134 89 117 110 122 118 120 132 141 136 130 130 128 124 125 130 133 123 121 107 89 70 50 33 49 87
113 97 171 262 287 270 273 30 58 69 67 1 0 150 136 126 107 101 98 96 87 71 68 45 59 38 69 120 106 131 139 135 133 124 121 133 131 136 137 111 111 101 83 74 71 62 51 47 77
133 65 107 243 214 254 46 62 62 51 83 43 333 68 118 131 117 103 106 93 97 89 94 95 81 352 16 48 129 127 134 129 122 128 141 119 104 98 92 113 94 66 59 63 71 70 71 57 54
118 129 227 221 230 232 119 155 180 102 106 61 95 106 129 134 131 131 132 117 115 124 135 149 171 186 191 101 99 102 123 108 117 122 108 103 122 143 113 106 86 65 80 75 72 63 62 57 50
181 199 201 248 228 175 180 175 119 128 143 162 142 136 156 124 136 148 131 126 139 142 160 193 201 199 112 117 83 63 70 110 122 128 134 147 132 104 97 82 88 82 71 61 55 56 54 62 59
260 236 187 222 190 102 250 112 86 42 352 128 133 128 116 166 171 185 137 143 155 171 177 200 248 142 196 134 125 117 140 141 155 170 149 123 111 105 95 82 92 83 69 73 71 63 61 57 56
224 271 222 201 128 154 95 47 94 76 112 127 137 148 170 191 181 155 143 141 157 181 193 207 205 180 192 139 128 167 144 126 118 120 130 130 114 116 112 95 79 73 81 82 80 75 66 58 57
200 201 89 231 149 121 109 149 68 58 127 136 154 160 175 193 187 157 160 156 174 190 202 202 195 168 176 135 157 146 125 114 99 107 135 118 125 124 96 96 82 80 76 78 77 74 66 53 43
106 72 28 307 59 90 116 307 135 153 144 152 171 188 189 186 192 198 175 181 182 195 195 188 174 163 156 133 154 146 124 135 134 130 134 124 119 110 110 94 78 96 92 85 68 59 56 47 34
65 49 53 20 105 9 87 220 189 160 162 179 175 191 198 199 203 206 192 193 194 198 188 163 171 156 135 156 147 128 149 144 133 136 115 106 114 109 100 104 101 104 86 84 72 60 63 60 40
6 170 182 323 148 134 175 159 192 172 185 179 170 185 198 204 214 218 204 201 190 184 174 158 147 152 143 142 129 134 150 126 137 102 101 121 112 107 107 105 105 105 92 83 105 62 101 68 25
305 19 358 220 191 185 241 271 168 174 180 194 162 167 187 198 204 205 207 206 187 177 159 142 151 150 141 135 115 97 85 96 99 137 111 107 113 111 110 108 124 116 99 87 82 100 60 83 58
225 15 345 277 213 144 225 198 198 172 177 162 191 173 184 194 207 200 202 189 176 176 150 160 152 158 149 150 141 129 158 156 125 146 126 120 121 131 130 124 111 88 92 107 79 86 56 40 32
17 354 294 287 276 173 181 222 209 177 204 178 188 192 193 190 194 198 190 184 175 179 170 168 169 166 173 165 156 147 147 152 122 132 124 139 143 141 119 108 90 98 100 71 57 56 57 72 14
289 222 252 239 14 47 94 8 295 245 287 151 229 222 194 189 191 191 190 193 180 189 183 178 173 176 179 169 128 85 70 62 83 96 109 140 116 90 95 91 88 73 67 57 44 54 83 142 2
296 270 221 271 77 138 65 266 266 226 243 259 231 211 212 203 199 193 195 195 197 188 188 180 177 178 179 170 167 163 170 163 165 145 118 92 85 89 89 88 78 73 76 68 50 67 65 94 140
237 353 177 88 108 103 343 89 272 146 251 248 241 226 213 214 207 196 196 201 193 170 184 178 177 184 182 181 162 152 150 135 117 106 110 103 90 85 82 89 86 76 66 63 104 100 104 129 133
259 114 24 53 68 45 205 137 276 187 217 233 240 234 212 177 193 174 173 158 188 177 168 178 173 179 166 171 172 173 152 133 127 133 126 117 104 100 101 90 93 85 80 106 129 137 133 125 138
59 44 356 4 10 218 45 45 235 227 223 212 214 228 209 175 168 166 163 174 179 181 180 175 174 182 172 160 161 163 151 154 157 155 146 142 132 110 106 101 92 80 114 147 168 165 176 185 187
55 146 151 230 194 274 4 246 259 242 296 265 222 212 185 174 178 179 176 177 186 189 179 176 178 163 166 155 157 141 146 150 147 144 140 132 129 135 145 120 108 133 137 142 200 199 195 200 218
183 31 161 99 355 47 253 291 302 319 22 95 133 130 185 180 179 176 174 174 175 178 177 170 166 164 169 151 147 147 143 147 146 141 139 143 145 142 146 145 151 175 180 181 205 206 208 207 221
173 160 82 17 152 243 285 279 246 321 337 130 173 190 196 178 165 162 170 171 177 174 161 157 171 173 165 159 159 159 158 149 147 149 158 162 163 156 166 155 172 189 191 200 201 192 202 216 248
168 202 82 123 133 171 210 266 220 244 289 303 210 208 211 197 187 179 181 177 175 165 171 176 173 168 171 166 152 146 152 153 153 162 163 167 168 162 169 165 179 187 207 199 162 194 222 221 244
129 261 148 128 222 192 159 266 246 232 264 273 272 197 205 195 195 191 183 170 170 177 181 188 183 182 174 157 151 162 158 161 167 169 173 172 179 168 169 173 177 201 211 193 203 219 222 221 221